N0SWP-3 Weather Reports


time (UTC)temp
C
wind
direction
speed
KPH
gust
KPH
rain 1hr
cm
rain 24hr
cm
rain mn
cm
humidity
%
barometer
mb
20260906182103 38 173 1.6 6.4 0.00 0.00 0.00 42 1014.5
20260906181803 38 160 1.6 8.0 0.00 0.00 0.00 43 1014.4
20260906181503 37 162 3.2 8.0 0.00 0.00 0.00 44 1014.5
20260906181203 37 150 3.2 9.7 0.00 0.00 0.00 44 1014.6
20260906180903 37 160 1.6 9.7 0.00 0.00 0.00 44 1014.7
20260906180603 37 155 3.2 9.7 0.00 0.00 0.00 44 1014.7
20260906180303 37 160 1.6 8.0 0.00 0.00 0.00 45 1014.7
20260906180003 37 160 1.6 8.0 0.00 0.00 0.00 45 1014.8
20260906175703 37 165 1.6 8.0 0.00 0.00 0.00 45 1014.8
20260906175617 37 167 0.0 3.2 0.00 0.00 0.00 46 1014.8
20260906175103 37 171 1.6 4.8 0.00 0.00 0.00 47 1015.0
20260906174803 37 175 1.6 4.8 0.00 0.00 0.00 47 1015.0
20260906174503 37 172 1.6 4.8 0.00 0.00 0.00 47 1015.1
20260906174203 37 174 1.6 4.8 0.00 0.00 0.00 47 1015.1
20260906173903 37 173 1.6 6.4 0.00 0.00 0.00 48 1015.1
20260906173603 37 179 1.6 6.4 0.00 0.00 0.00 47 1015.2
20260906173303 37 170 1.6 6.4 0.00 0.00 0.00 47 1015.2
20260906173003 37 155 1.6 6.4 0.00 0.00 0.00 48 1015.3
20260906172703 36 156 1.6 6.4 0.00 0.00 0.00 48 1015.3
20260906172403 36 160 1.6 6.4 0.00 0.00 0.00 47 1015.4
20260906172103 36 190 1.6 6.4 0.00 0.00 0.00 47 1015.5
20260906171803 36 194 1.6 6.4 0.00 0.00 0.00 49 1015.5
20260906171503 36 188 1.6 6.4 0.00 0.00 0.00 49 1015.6
20260906171203 36 178 1.6 6.4 0.00 0.00 0.00 48 1015.6
20260906171118 36 171 1.6 6.4 0.00 0.00 0.00 48 1015.6
20260906170603 36 169 1.6 6.4 0.00 0.00 0.00 49 1015.7
20260906170303 36 170 0.0 4.8 0.00 0.00 0.00 49 1015.8
20260906170003 36 173 0.0 4.8 0.00 0.00 0.00 49 1015.8
20260906165917 36 173 0.0 4.8 0.00 0.00 0.00 49 1015.8
20260906165403 36 204 0.0 3.2 0.00 0.00 0.00 50 1015.9
20260906165103 36 179 0.0 3.2 0.00 0.00 0.00 51 1015.9
20260906165017 36 179 0.0 3.2 0.00 0.00 0.00 51 1015.9
20260906164503 36 160 0.0 3.2 0.00 0.00 0.00 51 1015.9
20260906164203 36 147 0.0 4.8 0.00 0.00 0.00 51 1015.9
20260906163903 36 151 0.0 4.8 0.00 0.00 0.00 50 1016.0
20260906163603 36 162 0.0 4.8 0.00 0.00 0.00 50 1016.0
20260906163517 36 169 1.6 4.8 0.00 0.00 0.00 50 1016.0
20260906163003 36 178 1.6 6.4 0.00 0.00 0.00 51 1016.1
20260906162703 36 168 3.2 6.4 0.00 0.00 0.00 50 1016.0
20260906162403 36 155 1.6 6.4 0.00 0.00 0.00 50 1016.1
20260906162103 36 150 1.6 6.4 0.00 0.00 0.00 50 1016.1
20260906161803 37 161 0.0 3.2 0.00 0.00 0.00 50 1016.0
20260906161503 36 165 1.6 3.2 0.00 0.00 0.00 52 1016.0
20260906161203 36 164 1.6 3.2 0.00 0.00 0.00 52 1016.0
20260906160903 36 170 1.6 3.2 0.00 0.00 0.00 52 1016.0
20260906160818 36 169 1.6 8.0 0.00 0.00 0.00 52 1016.0
20260906160303 35 159 1.6 8.0 0.00 0.00 0.00 55 1016.0
20260906160003 35 154 1.6 8.0 0.00 0.00 0.00 55 1016.1
20260906155703 34 151 1.6 8.0 0.00 0.00 0.00 56 1016.0
20260906155403 34 159 1.6 9.7 0.00 0.00 0.00 56 1016.0
20260906155103 34 165 1.6 9.7 0.00 0.00 0.00 58 1015.9
20260906154803 33 162 1.6 9.7 0.00 0.00 0.00 58 1015.9
20260906154503 33 160 1.6 9.7 0.00 0.00 0.00 57 1015.9
20260906154203 33 178 1.6 3.2 0.00 0.00 0.00 58 1015.8
20260906153903 33 180 1.6 3.2 0.00 0.00 0.00 60 1015.8
20260906153603 32 182 1.6 3.2 0.00 0.00 0.00 61 1015.8
20260906153303 32 178 0.0 3.2 0.00 0.00 0.00 62 1015.7
20260906153217 32 172 1.6 3.2 0.00 0.00 0.00 62 1015.7
20260906152917 32 161 1.6 4.8 0.00 0.00 0.00 63 1015.7
20260906152403 32 153 0.0 4.8 0.00 0.00 0.00 62 1015.8
20260906152103 32 171 0.0 1.6 0.00 0.00 0.00 63 1015.7
20260906151803 32 166 0.0 4.8 0.00 0.00 0.00 63 1015.7
20260906151504 32 164 1.6 6.4 0.00 0.00 0.00 63 1015.7
20260906151203 32 163 1.6 6.4 0.00 0.00 0.00 64 1015.6
20260906150903 31 160 1.6 6.4 0.00 0.00 0.00 65 1015.6
20260906150603 31 155 3.2 8.0 0.00 0.00 0.00 65 1015.6
20260906150517 31 152 1.6 8.0 0.00 0.00 0.00 65 1015.6
20260906150217 31 147 1.6 8.0 0.00 0.00 0.00 65 1015.6
20260906145703 31 142 1.6 8.0 0.00 0.00 0.00 66 1015.6
20260906145403 31 142 1.6 8.0 0.00 0.00 0.00 66 1015.6
20260906145103 31 144 0.0 8.0 0.00 0.00 0.00 67 1015.6
20260906145018 31 160 0.0 3.2 0.00 0.00 0.00 67 1015.7
20260906144718 30 142 1.6 4.8 0.00 0.00 0.00 68 1015.7
20260906144203 30 144 1.6 4.8 0.00 0.00 0.00 69 1015.7
20260906143903 30 146 1.6 4.8 0.00 0.00 0.00 68 1015.8
20260906143603 30 150 1.6 4.8 0.00 0.00 0.00 69 1015.8
20260906143303 30 152 1.6 4.8 0.00 0.00 0.00 68 1015.8
20260906143217 30 154 1.6 4.8 0.00 0.00 0.00 69 1015.8
20260906142918 30 160 1.6 4.8 0.00 0.00 0.00 69 1015.7
20260906142618 29 157 1.6 4.8 0.00 0.00 0.00 71 1015.7
20260906142103 29 161 1.6 4.8 0.00 0.00 0.00 71 1015.7
20260906142018 29 161 1.6 4.8 0.00 0.00 0.00 71 1015.7
20260906141503 28 167 1.6 4.8 0.00 0.00 0.00 72 1015.7
20260906141417 28 158 1.6 4.8 0.00 0.00 0.00 72 1015.7
20260906141117 28 146 1.6 6.4 0.00 0.00 0.00 74 1015.7
20260906140603 27 153 3.2 6.4 0.00 0.00 0.00 75 1015.6
20260906140303 27 157 1.6 6.4 0.00 0.00 0.00 75 1015.6
20260906140003 27 160 1.6 6.4 0.00 0.00 0.00 75 1015.5
20260906135703 27 156 1.6 4.8 0.00 0.00 0.00 76 1015.6
20260906135403 27 153 1.6 8.0 0.00 0.00 0.00 77 1015.5
20260906135103 27 149 3.2 8.0 0.00 0.00 0.00 77 1015.6
20260906134803 27 150 3.2 8.0 0.00 0.00 0.00 77 1015.6
20260906134503 27 150 1.6 8.0 0.00 0.00 0.00 77 1015.5
20260906134203 26 156 1.6 4.8 0.00 0.00 0.00 78 1015.5
20260906133903 26 155 1.6 4.8 0.00 0.00 0.00 78 1015.5
20260906133817 26 154 1.6 4.8 0.00 0.00 0.00 79 1015.5
20260906133303 26 149 0.0 4.8 0.00 0.00 0.00 80 1015.4
20260906133003 26 0 0.0 0.0 0.00 0.00 0.00 81 1015.3
20260906132918 26 0 0.0 0.0 0.00 0.00 0.00 81 1015.3
20260906132403 25 0 0.0 0.0 0.00 0.00 0.00 83 1015.2
20260906132103 25 0 0.0 0.0 0.00 0.00 0.00 84 1015.1
20260906131803 25 0 0.0 0.0 0.00 0.00 0.00 85 1015.1
20260906131503 24 0 0.0 0.0 0.00 0.00 0.00 86 1015.1
20260906131203 24 0 0.0 0.0 0.00 0.00 0.00 87 1015.1
20260906130903 24 0 0.0 0.0 0.00 0.00 0.00 87 1015.1
20260906130603 23 0 0.0 0.0 0.00 0.00 0.00 89 1015.2
20260906130303 23 0 0.0 0.0 0.00 0.00 0.00 89 1015.2
20260906130003 23 0 0.0 0.0 0.00 0.00 0.00 90 1015.1
20260906125703 23 0 0.0 0.0 0.00 0.00 0.00 90 1015.1
20260906125403 23 0 0.0 0.0 0.00 0.00 0.00 91 1015.0
20260906125317 23 0 0.0 0.0 0.00 0.00 0.00 91 1015.0
20260906124803 23 0 0.0 0.0 0.00 0.00 0.00 91 1014.9
20260906124503 23 0 0.0 0.0 0.00 0.00 0.00 91 1014.9
20260906124203 22 0 0.0 0.0 0.00 0.00 0.00 91 1014.9
20260906123903 22 0 0.0 0.0 0.00 0.00 0.00 92 1014.9
20260906123818 22 0 0.0 0.0 0.00 0.00 0.00 91 1014.9
20260906123303 22 0 0.0 0.0 0.00 0.00 0.00 92 1014.9
20260906123003 22 0 0.0 0.0 0.00 0.00 0.00 91 1014.8
20260906122917 22 0 0.0 0.0 0.00 0.00 0.00 91 1014.8
20260906122403 22 0 0.0 0.0 0.00 0.00 0.00 91 1014.7
20260906122103 22 0 0.0 0.0 0.00 0.00 0.00 91 1014.7
20260906122017 22 0 0.0 0.0 0.00 0.00 0.00 91 1014.7
20260906121503 22 0 0.0 0.0 0.00 0.00 0.00 90 1014.6
20260906121203 22 0 0.0 0.0 0.00 0.00 0.00 90 1014.5
20260906120903 22 0 0.0 0.0 0.00 0.00 0.00 90 1014.5
20260906120603 22 0 0.0 0.0 0.00 0.00 0.00 90 1014.5
20260906120303 22 0 0.0 0.0 0.00 0.00 0.00 90 1014.5
20260906120218 22 0 0.0 0.0 0.00 0.00 0.00 90 1014.5
20260906115703 22 0 0.0 0.0 0.00 0.00 0.00 90 1014.5
20260906115403 22 0 0.0 0.0 0.00 0.00 0.00 91 1014.5
20260906115103 22 0 0.0 0.0 0.00 0.00 0.00 90 1014.5
20260906115017 22 0 0.0 0.0 0.00 0.00 0.00 90 1014.5
20260906114503 22 0 0.0 0.0 0.00 0.00 0.00 90 1014.4
20260906114203 22 0 0.0 0.0 0.00 0.00 0.00 90 1014.4
20260906113903 22 0 0.0 0.0 0.00 0.00 0.00 90 1014.4
20260906113603 22 0 0.0 0.0 0.00 0.00 0.00 90 1014.4
20260906113303 22 0 0.0 0.0 0.00 0.00 0.00 90 1014.4
20260906113003 22 0 0.0 0.0 0.00 0.00 0.00 90 1014.4
20260906112917 22 0 0.0 0.0 0.00 0.00 0.00 90 1014.4
20260906112403 22 0 0.0 0.0 0.00 0.00 0.00 90 1014.3
20260906112103 23 0 0.0 0.0 0.00 0.00 0.00 90 1014.3
20260906111803 23 0 0.0 0.0 0.00 0.00 0.00 90 1014.3
20260906111503 23 0 0.0 0.0 0.00 0.00 0.00 90 1014.3
20260906111203 23 0 0.0 0.0 0.00 0.00 0.00 89 1014.4
20260906110903 23 0 0.0 0.0 0.00 0.00 0.00 89 1014.4
20260906110603 23 0 0.0 0.0 0.00 0.00 0.00 88 1014.3
20260906110303 23 0 0.0 0.0 0.00 0.00 0.00 88 1014.4
20260906110217 23 0 0.0 0.0 0.00 0.00 0.00 88 1014.4
20260906105917 23 0 0.0 0.0 0.00 0.00 0.00 88 1014.4
20260906105617 23 0 0.0 0.0 0.00 0.00 0.00 87 1014.4
20260906105103 23 0 0.0 0.0 0.00 0.00 0.00 86 1014.3
20260906104803 23 0 0.0 0.0 0.00 0.00 0.00 86 1014.4
20260906104503 23 0 0.0 0.0 0.00 0.00 0.00 86 1014.4
20260906104203 23 0 0.0 0.0 0.00 0.00 0.00 86 1014.3
20260906103903 23 0 0.0 0.0 0.00 0.00 0.00 85 1014.3
20260906103603 23 0 0.0 0.0 0.00 0.00 0.00 85 1014.3
20260906103303 23 0 0.0 0.0 0.00 0.00 0.00 85 1014.4
20260906103003 23 0 0.0 0.0 0.00 0.00 0.00 85 1014.3
20260906102703 23 0 0.0 0.0 0.00 0.00 0.00 85 1014.3
20260906102403 23 0 0.0 0.0 0.00 0.00 0.00 85 1014.3
20260906102103 23 0 0.0 0.0 0.00 0.00 0.00 86 1014.2
20260906101803 23 0 0.0 0.0 0.00 0.00 0.00 86 1014.2
20260906101503 23 0 0.0 0.0 0.00 0.00 0.00 86 1014.2
20260906101203 23 0 0.0 0.0 0.00 0.00 0.00 87 1014.2
20260906101118 23 0 0.0 0.0 0.00 0.00 0.00 87 1014.2
20260906100817 23 0 0.0 0.0 0.00 0.00 0.00 87 1014.2
20260906100303 23 0 0.0 0.0 0.00 0.00 0.00 87 1014.1
20260906100003 23 0 0.0 0.0 0.00 0.00 0.00 87 1014.1
20260906095703 23 0 0.0 0.0 0.00 0.00 0.00 88 1014.1
20260906095404 23 0 0.0 0.0 0.00 0.00 0.00 88 1014.1
20260906095103 23 0 0.0 0.0 0.00 0.00 0.00 88 1014.1
20260906095018 23 0 0.0 0.0 0.00 0.00 0.00 88 1014.1
20260906094504 23 0 0.0 0.0 0.00 0.00 0.00 88 1014.1
20260906094203 23 0 0.0 0.0 0.00 0.00 0.00 88 1014.1
20260906093903 23 0 0.0 0.0 0.00 0.00 0.00 87 1014.0
20260906093603 23 0 0.0 0.0 0.00 0.00 0.00 87 1014.0
20260906093303 23 0 0.0 0.0 0.00 0.00 0.00 87 1014.0
20260906093004 23 0 0.0 0.0 0.00 0.00 0.00 87 1013.9
20260906092703 23 0 0.0 0.0 0.00 0.00 0.00 87 1013.9
20260906092403 23 0 0.0 0.0 0.00 0.00 0.00 87 1013.9
20260906092103 23 0 0.0 0.0 0.00 0.00 0.00 87 1013.9
20260906091803 23 0 0.0 0.0 0.00 0.00 0.00 87 1014.0
20260906091503 23 0 0.0 0.0 0.00 0.00 0.00 86 1014.0
20260906091203 23 0 0.0 0.0 0.00 0.00 0.00 86 1013.9
20260906090903 23 0 0.0 0.0 0.00 0.00 0.00 86 1013.9
20260906090604 23 0 0.0 0.0 0.00 0.00 0.00 86 1013.9
20260906090303 23 0 0.0 0.0 0.00 0.00 0.00 86 1013.9
20260906090003 23 0 0.0 0.0 0.00 0.00 0.00 86 1013.9
20260906085703 23 0 0.0 0.0 0.00 0.00 0.00 86 1013.8
20260906085403 24 0 0.0 0.0 0.00 0.00 0.00 86 1013.9
20260906085104 24 0 0.0 0.0 0.00 0.00 0.00 85 1013.8
20260906084803 24 0 0.0 0.0 0.00 0.00 0.00 85 1013.7
20260906084718 24 0 0.0 0.0 0.00 0.00 0.00 85 1013.8
20260906084203 24 0 0.0 0.0 0.00 0.00 0.00 85 1013.7
20260906084117 24 0 0.0 0.0 0.00 0.00 0.00 85 1013.7
20260906083603 24 0 0.0 0.0 0.00 0.00 0.00 85 1013.6
20260906083303 24 0 0.0 0.0 0.00 0.00 0.00 85 1013.7
20260906083003 24 0 0.0 0.0 0.00 0.00 0.00 84 1013.6
20260906082916 24 0 0.0 0.0 0.00 0.00 0.00 84 1013.6
20260906082403 24 0 0.0 0.0 0.00 0.00 0.00 84 1013.6
20260906082103 24 0 0.0 0.0 0.00 0.00 0.00 84 1013.7
20260906081803 24 0 0.0 0.0 0.00 0.00 0.00 83 1013.7
20260906081503 24 0 0.0 0.0 0.00 0.00 0.00 83 1013.7
20260906081203 25 0 0.0 0.0 0.00 0.00 0.00 83 1013.7
20260906080903 25 0 0.0 0.0 0.00 0.00 0.00 83 1013.8
20260906080603 25 0 0.0 0.0 0.00 0.00 0.00 82 1013.8
20260906080519 25 0 0.0 0.0 0.00 0.00 0.00 82 1013.8
20260906080003 25 0 0.0 0.0 0.00 0.00 0.00 82 1013.7
20260906075703 25 0 0.0 0.0 0.00 0.00 0.00 82 1013.7
20260906075403 25 0 0.0 0.0 0.00 0.00 0.00 81 1013.8
20260906075103 25 0 0.0 0.0 0.00 0.00 0.00 81 1013.7
20260906075017 25 0 0.0 0.0 0.00 0.00 0.00 81 1013.7
20260906074503 25 0 0.0 0.0 0.00 0.00 0.00 81 1013.7
20260906074203 25 0 0.0 0.0 0.00 0.00 0.00 81 1013.6
20260906073903 25 0 0.0 0.0 0.00 0.00 0.00 81 1013.6
20260906073816 25 0 0.0 0.0 0.00 0.00 0.00 81 1013.6
20260906073303 25 0 0.0 0.0 0.00 0.00 0.00 81 1013.6
20260906073003 25 0 0.0 0.0 0.00 0.00 0.00 81 1013.6
20260906072703 25 0 0.0 0.0 0.00 0.00 0.00 81 1013.6
20260906072403 25 0 0.0 0.0 0.00 0.00 0.00 81 1013.7
20260906072103 25 0 0.0 0.0 0.00 0.00 0.00 80 1013.7
20260906071803 25 0 0.0 0.0 0.00 0.00 0.00 80 1013.6
20260906071503 25 0 0.0 0.0 0.00 0.00 0.00 80 1013.7
20260906071203 25 0 0.0 0.0 0.00 0.00 0.00 80 1013.7
20260906070903 25 0 0.0 0.0 0.00 0.00 0.00 80 1013.7
20260906070603 25 0 0.0 0.0 0.00 0.00 0.00 80 1013.7
20260906070303 25 0 0.0 0.0 0.00 0.00 0.00 79 1013.7
20260906070218 25 0 0.0 0.0 0.00 0.00 0.00 79 1013.7
20260906065704 26 0 0.0 0.0 0.00 0.00 0.00 79 1013.7
20260906065403 26 0 0.0 0.0 0.00 0.00 0.00 79 1013.7
20260906065103 26 0 0.0 0.0 0.00 0.00 0.00 79 1013.8
20260906065017 26 0 0.0 0.0 0.00 0.00 0.00 79 1013.8
20260906064503 26 0 0.0 0.0 0.00 0.00 0.00 78 1013.8
20260906064203 26 0 0.0 0.0 0.00 0.00 0.00 78 1013.7
20260906063903 26 0 0.0 0.0 0.00 0.00 0.00 79 1013.8
20260906063818 26 0 0.0 0.0 0.00 0.00 0.00 79 1013.7
20260906063303 26 0 0.0 0.0 0.00 0.00 0.00 78 1013.8
20260906063003 26 0 0.0 0.0 0.00 0.00 0.00 78 1013.8
20260906062703 26 0 0.0 0.0 0.00 0.00 0.00 78 1013.8
20260906062403 26 0 0.0 0.0 0.00 0.00 0.00 77 1013.8
20260906062103 26 0 0.0 0.0 0.00 0.00 0.00 77 1013.8
20260906062017 26 0 0.0 0.0 0.00 0.00 0.00 77 1013.9
20260906061503 26 0 0.0 0.0 0.00 0.00 0.00 77 1014.0
20260906061203 26 0 0.0 0.0 0.00 0.00 0.00 76 1014.0
20260906060903 26 0 0.0 0.0 0.00 0.00 0.00 76 1014.0
20260906060603 26 0 0.0 0.0 0.00 0.00 0.00 76 1014.1
20260906060303 27 0 0.0 0.0 0.00 0.00 0.00 76 1014.1
20260906060217 27 0 0.0 0.0 0.00 0.00 0.00 76 1014.2
20260906055703 27 0 0.0 0.0 0.00 0.00 0.00 75 1014.2
20260906055403 27 0 0.0 0.0 0.00 0.00 0.00 75 1014.1
20260906055103 27 0 0.0 0.0 0.00 0.00 0.00 74 1014.1
20260906054803 27 0 0.0 0.0 0.00 0.00 0.00 74 1014.2
20260906054503 27 0 0.0 0.0 0.00 0.00 0.00 74 1014.2
20260906054203 27 0 0.0 0.0 0.00 0.00 0.00 74 1014.3
20260906053903 27 0 0.0 0.0 0.00 0.00 0.00 74 1014.3
20260906053603 27 0 0.0 0.0 0.00 0.00 0.00 73 1014.3
20260906053518 27 0 0.0 0.0 0.00 0.00 0.00 73 1014.3
20260906053003 27 0 0.0 0.0 0.00 0.00 0.00 72 1014.3
20260906052703 27 0 0.0 0.0 0.00 0.00 0.00 72 1014.3
20260906052403 27 0 0.0 0.0 0.00 0.00 0.00 72 1014.2
20260906052103 27 0 0.0 0.0 0.00 0.00 0.00 71 1014.3
20260906051804 27 0 0.0 0.0 0.00 0.00 0.00 71 1014.2
20260906051716 27 0 0.0 0.0 0.00 0.00 0.00 71 1014.2
20260906051418 27 0 0.0 0.0 0.00 0.00 0.00 71 1014.2
20260906051118 27 0 0.0 0.0 0.00 0.00 0.00 71 1014.1
20260906050603 28 0 0.0 0.0 0.00 0.00 0.00 70 1014.1
20260906050517 28 0 0.0 0.0 0.00 0.00 0.00 70 1014.1
20260906050004 28 0 0.0 0.0 0.00 0.00 0.00 70 1014.1
20260906045703 28 0 0.0 0.0 0.00 0.00 0.00 70 1014.1
20260906045403 28 0 0.0 0.0 0.00 0.00 0.00 70 1014.2
20260906045103 28 0 0.0 0.0 0.00 0.00 0.00 70 1014.2
20260906044803 28 0 0.0 0.0 0.00 0.00 0.00 70 1014.2
20260906044503 28 0 0.0 0.0 0.00 0.00 0.00 70 1014.1
20260906044203 28 0 0.0 0.0 0.00 0.00 0.00 70 1014.1
20260906043903 28 0 0.0 0.0 0.00 0.00 0.00 70 1014.1
20260906043603 28 0 0.0 0.0 0.00 0.00 0.00 70 1014.1
20260906043517 28 0 0.0 0.0 0.00 0.00 0.00 70 1014.1
20260906043003 28 0 0.0 0.0 0.00 0.00 0.00 69 1014.0
20260906042703 28 0 0.0 0.0 0.00 0.00 0.00 69 1014.1
20260906042403 28 0 0.0 0.0 0.00 0.00 0.00 69 1014.0
20260906042103 28 0 0.0 0.0 0.00 0.00 0.00 69 1014.0
20260906041803 28 0 0.0 0.0 0.00 0.00 0.00 69 1014.0
20260906041718 28 0 0.0 0.0 0.00 0.00 0.00 69 1014.0
20260906041203 28 0 0.0 0.0 0.00 0.00 0.00 69 1014.0
20260906040903 28 0 0.0 0.0 0.00 0.00 0.00 69 1014.0
20260906040603 28 0 0.0 0.0 0.00 0.00 0.00 68 1014.0
20260906040303 28 0 0.0 0.0 0.00 0.00 0.00 68 1013.9
20260906040003 28 0 0.0 0.0 0.00 0.00 0.00 68 1013.9
20260906035703 28 0 0.0 0.0 0.00 0.00 0.00 68 1013.9
20260906035403 28 0 0.0 0.0 0.00 0.00 0.00 68 1013.9
20260906035103 28 0 0.0 0.0 0.00 0.00 0.00 68 1013.9
20260906034803 28 0 0.0 0.0 0.00 0.00 0.00 68 1013.9
20260906034717 28 0 0.0 0.0 0.00 0.00 0.00 68 1013.9
20260906034203 29 0 0.0 0.0 0.00 0.00 0.00 68 1013.9
20260906033903 29 0 0.0 0.0 0.00 0.00 0.00 68 1013.8
20260906033603 29 0 0.0 0.0 0.00 0.00 0.00 67 1013.7
20260906033303 29 0 0.0 0.0 0.00 0.00 0.00 67 1013.6
20260906033003 29 168 0.0 1.6 0.00 0.00 0.00 67 1013.7
20260906032703 29 168 0.0 1.6 0.00 0.00 0.00 67 1013.6
20260906032403 29 168 0.0 1.6 0.00 0.00 0.00 67 1013.6
20260906032318 29 168 0.0 1.6 0.00 0.00 0.00 67 1013.7
20260906031803 29 0 0.0 0.0 0.00 0.00 0.00 66 1013.7
20260906031503 30 0 0.0 0.0 0.00 0.00 0.00 66 1013.7
20260906031417 30 0 0.0 0.0 0.00 0.00 0.00 66 1013.7
20260906030903 30 162 0.0 1.6 0.00 0.00 0.00 65 1013.6
20260906030603 30 162 0.0 1.6 0.00 0.00 0.00 65 1013.6
20260906030516 30 162 0.0 1.6 0.00 0.00 0.00 65 1013.5
20260906030216 30 0 0.0 0.0 0.00 0.00 0.00 65 1013.5
20260906025703 30 161 0.0 3.2 0.00 0.00 0.00 64 1013.3
20260906025403 30 164 0.0 3.2 0.00 0.00 0.00 63 1013.3
20260906025318 30 164 0.0 3.2 0.00 0.00 0.00 63 1013.3
20260906024803 30 167 0.0 3.2 0.00 0.00 0.00 63 1013.3
20260906024717 30 167 0.0 3.2 0.00 0.00 0.00 62 1013.2
20260906024203 30 167 0.0 1.6 0.00 0.00 0.00 62 1013.1
20260906023903 30 167 0.0 1.6 0.00 0.00 0.00 62 1013.1
20260906023603 30 0 0.0 0.0 0.00 0.00 0.00 62 1013.1
20260906023303 30 0 0.0 0.0 0.00 0.00 0.00 62 1013.0
20260906023218 30 0 0.0 0.0 0.00 0.00 0.00 62 1013.0
20260906022703 30 0 0.0 0.0 0.00 0.00 0.00 62 1012.9
20260906022403 30 0 0.0 0.0 0.00 0.00 0.00 62 1012.9
20260906022103 30 169 0.0 1.6 0.00 0.00 0.00 62 1012.8
20260906021803 30 169 0.0 1.6 0.00 0.00 0.00 62 1012.8
20260906021503 30 169 0.0 1.6 0.00 0.00 0.00 61 1012.7
20260906021417 30 169 0.0 1.6 0.00 0.00 0.00 62 1012.7
20260906020903 30 0 0.0 0.0 0.00 0.00 0.00 61 1012.6
20260906020603 31 0 0.0 0.0 0.00 0.00 0.00 61 1012.5
20260906020303 31 0 0.0 0.0 0.00 0.00 0.00 62 1012.6
20260906020003 31 0 0.0 0.0 0.00 0.00 0.00 61 1012.5
20260906015918 31 0 0.0 0.0 0.00 0.00 0.00 61 1012.5
20260906015403 31 0 0.0 0.0 0.00 0.00 0.00 60 1012.4
20260906015103 31 0 0.0 0.0 0.00 0.00 0.00 59 1012.4
20260906014803 31 0 0.0 0.0 0.00 0.00 0.00 59 1012.3
20260906014503 31 0 0.0 0.0 0.00 0.00 0.00 59 1012.2
20260906014203 31 0 0.0 0.0 0.00 0.00 0.00 59 1012.2
20260906013903 31 0 0.0 0.0 0.00 0.00 0.00 58 1012.2
20260906013603 32 0 0.0 0.0 0.00 0.00 0.00 58 1012.2
20260906013518 32 0 0.0 0.0 0.00 0.00 0.00 57 1012.2
20260906013003 32 0 0.0 0.0 0.00 0.00 0.00 55 1012.1
20260906012703 32 0 0.0 0.0 0.00 0.00 0.00 56 1012.1
20260906012617 32 0 0.0 0.0 0.00 0.00 0.00 55 1012.1
20260906012103 32 0 0.0 0.0 0.00 0.00 0.00 55 1012.0
20260906011803 32 0 0.0 0.0 0.00 0.00 0.00 55 1012.0
20260906011503 32 0 0.0 0.0 0.00 0.00 0.00 55 1012.0
20260906011203 32 0 0.0 0.0 0.00 0.00 0.00 54 1012.0
20260906010903 32 0 0.0 0.0 0.00 0.00 0.00 54 1011.9
20260906010603 32 0 0.0 0.0 0.00 0.00 0.00 54 1011.9
20260906010303 33 0 0.0 0.0 0.00 0.00 0.00 53 1011.9
20260906010003 33 0 0.0 0.0 0.00 0.00 0.00 53 1011.8
20260906005703 33 0 0.0 0.0 0.00 0.00 0.00 52 1011.8
20260906005403 33 0 0.0 0.0 0.00 0.00 0.00 51 1011.8
20260906005103 33 0 0.0 0.0 0.00 0.00 0.00 51 1011.8
20260906004803 33 0 0.0 0.0 0.00 0.00 0.00 51 1011.8
20260906004503 33 0 0.0 0.0 0.00 0.00 0.00 51 1011.9
20260906004203 33 0 0.0 0.0 0.00 0.00 0.00 51 1011.8
20260906003903 34 0 0.0 0.0 0.00 0.00 0.00 51 1011.8
20260906003603 34 0 0.0 0.0 0.00 0.00 0.00 50 1011.8
20260906003303 34 169 0.0 1.6 0.00 0.00 0.00 49 1011.8
20260906003003 34 169 0.0 1.6 0.00 0.00 0.00 48 1011.9
20260906002917 34 169 0.0 1.6 0.00 0.00 0.00 48 1011.9
20260906002403 35 169 0.0 1.6 0.00 0.00 0.00 47 1011.8
20260906002103 35 0 0.0 0.0 0.00 0.00 0.00 47 1011.9
20260906001803 35 0 0.0 0.0 0.00 0.00 0.00 46 1011.9
20260906001503 35 0 0.0 0.0 0.00 0.00 0.00 46 1011.9
20260906001203 35 0 0.0 0.0 0.00 0.00 0.00 46 1011.9
20260906000903 35 0 0.0 0.0 0.00 0.00 0.00 46 1011.9
20260906000603 35 169 0.0 1.6 0.00 0.00 0.00 45 1011.9
20260906000303 35 169 0.0 1.6 0.00 0.00 0.00 45 1012.0
20260906000003 36 162 0.0 3.2 0.00 0.00 0.00 45 1012.0
20260905235703 36 155 0.0 3.2 0.00 0.00 0.00 45 1012.0
20260905235403 36 155 0.0 3.2 0.00 0.00 0.00 45 1012.0
20260905235317 36 154 0.0 3.2 0.00 0.00 0.00 44 1012.0
20260905235016 36 155 0.0 3.2 0.00 0.00 0.00 44 1011.9
20260905234503 36 149 0.0 6.4 0.00 0.00 0.00 43 1011.9
20260905234203 36 151 0.0 6.4 0.00 0.00 0.00 43 1011.9
20260905233903 36 151 1.6 6.4 0.00 0.00 0.00 42 1011.9
20260905233603 36 155 1.6 3.2 0.00 0.00 0.00 42 1011.8
20260905233517 36 155 1.6 3.2 0.00 0.00 0.00 42 1011.8
20260905233003 37 152 3.2 6.4 0.00 0.00 0.00 42 1011.8
20260905232703 37 153 3.2 6.4 0.00 0.00 0.00 42 1011.8
20260905232617 37 152 3.2 6.4 0.00 0.00 0.00 42 1011.8
20260905232103 37 153 3.2 8.0 0.00 0.00 0.00 41 1011.8
20260905231803 37 157 3.2 8.0 0.00 0.00 0.00 41 1011.8
20260905231503 37 156 3.2 8.0 0.00 0.00 0.00 40 1011.8
20260905231203 37 157 3.2 8.0 0.00 0.00 0.00 40 1011.9
20260905230903 37 146 3.2 9.7 0.00 0.00 0.00 40 1011.9
20260905230603 37 149 3.2 9.7 0.00 0.00 0.00 39 1012.0
20260905230303 38 148 3.2 9.7 0.00 0.00 0.00 39 1012.0
20260905230003 38 149 1.6 9.7 0.00 0.00 0.00 38 1011.9
20260905225703 38 145 1.6 9.7 0.00 0.00 0.00 38 1012.0
20260905225403 38 145 1.6 9.7 0.00 0.00 0.00 39 1011.9
20260905225103 39 156 0.0 9.7 0.00 0.00 0.00 37 1011.9
20260905224803 39 177 0.0 4.8 0.00 0.00 0.00 38 1011.9
20260905224503 39 167 0.0 4.8 0.00 0.00 0.00 38 1011.9
20260905224203 38 175 1.6 6.4 0.00 0.00 0.00 38 1011.8
20260905223903 38 175 1.6 6.4 0.00 0.00 0.00 39 1011.9
20260905223603 38 180 1.6 6.4 0.00 0.00 0.00 39 1011.9
20260905223303 38 191 1.6 6.4 0.00 0.00 0.00 39 1011.9
20260905223003 38 187 1.6 6.4 0.00 0.00 0.00 38 1011.9
20260905222918 38 187 1.6 6.4 0.00 0.00 0.00 38 1012.0
20260905222618 39 185 1.6 4.8 0.00 0.00 0.00 38 1011.9
20260905222103 39 176 1.6 4.8 0.00 0.00 0.00 37 1011.9
20260905221803 39 157 0.0 3.2 0.00 0.00 0.00 37 1011.9
20260905221503 39 151 0.0 4.8 0.00 0.00 0.00 38 1011.9
20260905221417 38 151 0.0 4.8 0.00 0.00 0.00 38 1011.9
20260905220903 38 188 1.6 4.8 0.00 0.00 0.00 38 1012.0
20260905220603 39 189 0.0 4.8 0.00 0.00 0.00 38 1012.0
20260905220303 38 159 1.6 11.3 0.00 0.00 0.00 38 1012.0
20260905220003 38 144 3.2 11.3 0.00 0.00 0.00 38 1011.9
20260905215703 38 138 3.2 11.3 0.00 0.00 0.00 39 1011.9
20260905215403 38 137 4.8 11.3 0.00 0.00 0.00 38 1012.0
20260905215103 38 144 4.8 9.7 0.00 0.00 0.00 38 1012.0
20260905214803 38 146 4.8 9.7 0.00 0.00 0.00 38 1012.1
20260905214503 38 149 3.2 9.7 0.00 0.00 0.00 38 1012.1
20260905214203 39 148 3.2 9.7 0.00 0.00 0.00 37 1012.1
20260905213903 39 150 1.6 6.4 0.00 0.00 0.00 38 1012.1
20260905213603 39 153 1.6 8.0 0.00 0.00 0.00 38 1012.1
20260905213303 39 162 0.0 8.0 0.00 0.00 0.00 38 1012.2
20260905213218 39 165 0.0 8.0 0.00 0.00 0.00 38 1012.2
20260905212918 39 169 0.0 8.0 0.00 0.00 0.00 38 1012.2
20260905212403 39 144 0.0 4.8 0.00 0.00 0.00 39 1012.4
20260905212103 39 146 1.6 4.8 0.00 0.00 0.00 39 1012.4
20260905211803 39 151 1.6 6.4 0.00 0.00 0.00 38 1012.5
20260905211717 39 151 1.6 6.4 0.00 0.00 0.00 38 1012.5
20260905211203 40 181 1.6 6.4 0.00 0.00 0.00 38 1012.5
20260905210903 39 195 1.6 8.0 0.00 0.00 0.00 38 1012.5
20260905210603 39 188 3.2 9.7 0.00 0.00 0.00 38 1012.5
20260905210518 38 188 3.2 9.7 0.00 0.00 0.00 39 1012.5
20260905210003 39 185 1.6 9.7 0.00 0.00 0.00 38 1012.5
20260905205703 40 198 0.0 4.8 0.00 0.00 0.00 38 1012.6
20260905205618 40 200 0.0 4.8 0.00 0.00 0.00 38 1012.6
20260905205103 39 202 1.6 4.8 0.00 0.00 0.00 38 1012.6
20260905204803 38 200 1.6 4.8 0.00 0.00 0.00 39 1012.7
20260905204717 38 200 1.6 4.8 0.00 0.00 0.00 39 1012.7
20260905204203 38 199 1.6 6.4 0.00 0.00 0.00 40 1012.8
20260905203903 38 203 3.2 6.4 0.00 0.00 0.00 40 1012.8
20260905203603 37 205 1.6 6.4 0.00 0.00 0.00 41 1012.9
20260905203303 37 208 3.2 6.4 0.00 0.00 0.00 42 1012.9
20260905203003 37 207 3.2 9.7 0.00 0.00 0.00 42 1013.0
20260905202703 37 227 4.8 9.7 0.00 0.00 0.00 42 1013.0
20260905202618 37 227 4.8 9.7 0.00 0.00 0.00 42 1013.0
20260905202103 37 240 4.8 9.7 0.00 0.00 0.00 43 1013.2
20260905201803 37 240 3.2 9.7 0.00 0.00 0.00 42 1013.2
20260905201503 37 215 1.6 9.7 0.00 0.00 0.00 44 1013.2
20260905201203 36 174 1.6 8.0 0.00 0.00 0.00 44 1013.2
20260905200903 36 174 1.6 8.0 0.00 0.00 0.00 44 1013.3
20260905200603 36 202 3.2 11.3 0.00 0.00 0.00 44 1013.3
20260905200303 36 218 3.2 11.3 0.00 0.00 0.00 45 1013.3
20260905200003 37 213 3.2 11.3 0.00 0.00 0.00 43 1013.3
20260905195917 37 213 3.2 11.3 0.00 0.00 0.00 43 1013.3
20260905195403 37 205 3.2 8.0 0.00 0.00 0.00 43 1013.5
20260905195317 37 203 3.2 8.0 0.00 0.00 0.00 44 1013.5
20260905194803 37 206 3.2 8.0 0.00 0.00 0.00 43 1013.5
20260905194503 37 206 3.2 9.7 0.00 0.00 0.00 44 1013.5
20260905194203 37 199 3.2 9.7 0.00 0.00 0.00 43 1013.6
20260905193903 37 200 3.2 9.7 0.00 0.00 0.00 43 1013.6
20260905193603 37 202 3.2 9.7 0.00 0.00 0.00 42 1013.7
20260905193303 38 203 3.2 6.4 0.00 0.00 0.00 42 1013.7
20260905193218 38 203 1.6 6.4 0.00 0.00 0.00 42 1013.7
20260905192703 38 188 1.6 6.4 0.00 0.00 0.00 41 1013.8
20260905192403 38 173 1.6 3.2 0.00 0.00 0.00 41 1013.8
20260905192103 38 186 1.6 9.7 0.00 0.00 0.00 41 1013.8
20260905191803 38 166 3.2 9.7 0.00 0.00 0.00 42 1013.8
20260905191503 38 173 3.2 9.7 0.00 0.00 0.00 41 1013.9
20260905191203 38 170 1.6 9.7 0.00 0.00 0.00 41 1013.9
20260905190903 38 177 1.6 8.0 0.00 0.00 0.00 41 1013.9
20260905190818 38 182 1.6 8.0 0.00 0.00 0.00 40 1013.9
20260905190303 39 173 1.6 6.4 0.00 0.00 0.00 40 1014.0
20260905190217 39 174 1.6 6.4 0.00 0.00 0.00 39 1014.0
20260905185917 40 169 1.6 6.4 0.00 0.00 0.00 38 1014.1
20260905185403 39 153 0.0 4.8 0.00 0.00 0.00 40 1014.1
20260905185317 39 153 0.0 4.8 0.00 0.00 0.00 41 1014.1
20260905184803 40 203 0.0 4.8 0.00 0.00 0.00 39 1014.2
20260905184503 38 210 1.6 6.4 0.00 0.00 0.00 41 1014.2
20260905184203 38 220 1.6 12.9 0.00 0.00 0.00 41 1014.3
20260905184118 38 219 1.6 12.9 0.00 0.00 0.00 41 1014.3
20260905183603 38 219 3.2 12.9 0.00 0.00 0.00 41 1014.4
20260905183303 37 204 1.6 6.4 0.00 0.00 0.00 44 1014.4
20260905183217 37 202 1.6 6.4 0.00 0.00 0.00 44 1014.4
20260905182703 37 212 3.2 9.7 0.00 0.00 0.00 45 1014.5
20260905182403 36 208 3.2 9.7 0.00 0.00 0.00 45 1014.5